User: anonymous   Login
Location: Space Photons Observatory
(33.2428°N, 111.5467°W)
Time: 22:01:29
(UTC-07:00)
Language:

RESURS DK-1 - Orbit

View from above orbital plane
View from above orbital plane
View from above satellite
View from above satellite

Ground track
Ground track

The orbit data is extracted from the following two-line orbital elements,

1 29228U 06021A   15211.71761968  .00000329  00000-0  32834-4 0  9995
2 29228 069.9377 046.4426 0007024 294.4952 065.5464 15.01554452504887
Epoch (UTC): 30 July 2015 17:13:22
Eccentricity: 0.0007024
inclination: 69.9377°
perigee height: 557 km
apogee height: 567 km
right ascension of ascending node: 46.4426°
argument of perigee: 294.4952°
revolutions per day: 15.01554452
mean anomaly at epoch: 65.5464°
orbit number at epoch: 50488

The dashed part of the orbit path shows where the satellite is in the earth's shadow,  

DLR